Overview Statistics Trail Chart Weather Telemetry Raw packets
 

This is the latest recevied weather packets stored in our database for station/object 9M4GEK-3. If no packets are shown the sender has not sent any weather packets the latest 10 day(s).

<< 41 42 43 44 45 46 47 >>
Time Temp. Humidity Pressure Rain* Wind** Luminosity Snow
1787834164 31.67° C 54% 1009.4 hPa - - - -
1787833264 32.22° C 54% 1009.2 hPa - - - -
1787832364 31.67° C 53% 1008.7 hPa - - - -
1787831464 32.22° C 53% 1008.6 hPa - - - -
1787830620 32.22° C 52% 1008.2 hPa - - - -
1787830564 32.22° C 52% 1008.2 hPa - - - -
1787829664 32.78° C 50% 1007.9 hPa - - - -
1787828764 33.89° C 48% 1007.8 hPa - - - -
1787827864 34.44° C 46% 1007.5 hPa - - - -
1787826964 35° C 44% 1007.3 hPa - - - -
1787826064 36.11° C 43% 1007.1 hPa - - - -
1787825163 36.67° C 41% 1007.5 hPa - - - -
1787824264 37.22° C 40% 1007.5 hPa - - - -
1787823364 38.33° C 38% 1007.5 hPa - - - -
1787822464 38.89° C 37% 1007.4 hPa - - - -
1787821564 38.89° C 36% 1007.4 hPa - - - -
1787820664 39.44° C 36% 1007.5 hPa - - - -
1787819764 40° C 35% 1007.5 hPa - - - -
1787818865 40° C 35% 1007.6 hPa - - - -
1787817965 40.56° C 34% 1007.8 hPa - - - -
1787817066 40° C 34% 1008.1 hPa - - - -
1787816165 40.56° C 33% 1008.4 hPa - - - -
1787815265 40.56° C 33% 1008.3 hPa - - - -
1787814366 41.11° C 32% 1008.3 hPa - - - -
1787813466 41.67° C 31% 1008.5 hPa - - - -

* Rain since midnight (hover to see other rain measurements)
** Current wind speed in m/s (hover to see current wind gust speed)